Погода в Атагае

Россия / Иркутская область     55°06′10″N   99°23′07″E
темп.,
°C
ветер,
м/с
пор.,
м/с
влажн.,
%
обл.,
%
осадки,
мм/ч
давл.,
гПа
погр.,
м
27 февраля, сб
сб2723:00−17зсз7129399 0.6 10311261
02:00−22зсз6157599 0.7 10341265
05:00−25сз2797100 0.0 1037152
08:00−26юз2296100 0.0 103831
11:00−22ююз2389100 0.0 1038333
14:00−19зюз2578100 0.1 10361146
17:00−17з2483100 0.1 1035845
20:00−21всв1198100 0.4 103720
28 февраля, вс
вс2823:00−21ю2298100 0.1 103879
02:00−22зюз1299100 0.3 103820
05:00−22ю1298100 0.1 103920
08:00−22ююз1298100 0.1 104024
11:00−19з1486100 0.0 1040486
14:00−17юз1381100 0.1 1039783
17:00−16зсз0183100 0.2 1038570
20:00−20всв119898 0.3 103820
1 марта, пн
пн123:00−20ююв1297100 0.1 103722
02:00−21ю2297100 0.2 103527
05:00−22ююв2293100 0.0 103320
08:00−23ююв2293100 0.0 103120
11:00−18ююв2486100 0.0 1028201
14:00−14ююв2485100 0.0 1023330
17:00−12юв2487100 0.0 1019320
20:00−15юв2294100 0.0 101848
2 марта, вт
вт223:00−15юв1497100 0.4 1016188
02:00−16ююв1196100 0.5 101420
05:00−15ссв1197100 0.2 101220
08:00−16с1297100 0.6 101376
11:00−15ссз2394100 0.5 1014330
14:00−13ссз3492100 0.9 1016491
17:00−14с3593100 0.4 1017513
20:00−17с3697100 0.8 1021376
3 марта, ср
ср323:00−20с2499100 0.3 1023142
02:00−22св2399100 0.6 1023176
05:00−25всв2398100 0.1 1023121
08:00−27в2398100 0.3 1024146
11:00−24в2496100 0.2 1022269
14:00−21в3494100 0.4 1021418
17:00−20в3495100 0.2 1021417
20:00−22в3697100 0.4 1022295